Погода в Мар-дель-Плата

Аргентина     37°59′42″S   57°34′15″W
темп.,
°C
ветер,
м/с
пор.,
м/с
влажн.,
%
обл.,
%
осадки,
мм/ч
давл.,
гПа
погр.,
м
13 апреля, вт
вт1300:00+17зсз59750 0.0 1018175
03:00+16зсз57750 0.0 1018151
06:00+16зсз34690 0.0 1019111
09:00+17з34640 0.0 1020142
12:00+21ссз23570 0.0 1020272
15:00+23с33570 0.0 1019289
18:00+21с33670 0.0 101931
21:00+19ссз34760 0.0 101982
14 апреля, ср
ср1400:00+17ссз46810 0.0 1019134
03:00+16ссз57850 0.0 1019170
06:00+15ссз47870 0.0 1018180
09:00+16ссз57830 0.0 1019240
12:00+20с69620 0.0 1018650
15:00+21с69600 0.0 1016551
18:00+20с47690 0.0 1015160
21:00+17с711750 0.0 1016354
15 апреля, чт
чт1500:00+16с712830 0.0 1016367
03:00+15ссз611860 0.0 1016295
06:00+14ссз59850 0.0 1015223
09:00+16ссз58824 0.0 1016238
12:00+20ссз57710 0.0 1015554
15:00+22с45660 0.0 1013395
18:00+21с45740 0.0 101376
21:00+19ссз46800 0.0 1014112
16 апреля, пт
пт1600:00+18сз47840 0.0 1014142
03:00+17сз45860 0.0 1014124
06:00+17зсз33850 0.0 101494
09:00+18зсз23810 0.0 1016150
12:00+22з12694 0.0 1016313
15:00+22ю456617 0.0 1015398
18:00+19ю46815 0.0 1016204
21:00+18ююв458420 0.0 1018208
17 апреля, сб
сб1700:00+18юв35810 0.0 1018229
03:00+18вюв23830 0.0 1019182
06:00+17вюв34790 0.0 1020221
09:00+18в34720 0.0 1021317
12:00+19всв45610 0.0 1022439
15:00+19всв45645 0.0 1020396
18:00+18св4674100 0.0 1020324
21:00+18всв57775 0.0 1021346